CZ-6A DEB, 54413

Orbit data source: Space-Track

CZ-6A DEB, 54413 is space debris in SSO originally from a launch on Fri, 11 Nov 2022 UTC launched from the Taiyaun Space Center, China (TSC). Debris objects in space refer to the collection of defunct objects orbiting the Earth. Examples of debris include non-operational satellites, rocket bodies, and fragments generated from explosions, collisions, or faulty payload assembly.

Loading next visibility...
Identifier
54413, 2022-151EM
Orbit
SSO
Country
Flag of CNCN / PRC
Related business
Manufacturer
SAST
Mission
Spacecraft
Bus & Motor
Unknown
Mass
Unknown
Launch date (UTC)
2022-11-11 (3 years ago)
Launch vehicle
Unknown
Launch site
Taiyaun Space Center, China (TSC)
Object type
Payload
Rocket body
Debris
Shape & HBR
Unknown shape, 0.1 m
Radar Cross Section
Small (<0.1 m²)

Expand to show TLE details & history
Last TLE update: 7 hours ago

TLE from 7 hours ago
0 CZ-6A DEB
1 54413U 22151EM  26130.41042075  .00034914  00000-0  15143-2 0  9990
2 54413  98.8205 284.2028 0066326 166.9407 193.3561 15.20260216188485
Epoch: 2026-05-10T09:51Z
TLE epoch observation values (Epoch: 2026-05-10T09:51:00.352Z)
Latitude
-0.00003°
Longitude
-91.76256°
Altitude
552.546 km
Speed
7.561 km/s
True Right ascension
18h 56m 48s
True Declination
0° 00' 00"
Sunlit
Object was in full shadow at epoch
Visualization orbit readout
Latitude
Unknown
Longitude
Unknown
Altitude
Unknown
Speed
Unknown
Apparent Right ascension
Unknown
Apparent Declination
Unknown
Sunlit
N/A
Visualization observer readout
Local Sidereal Time
01:07:25
Azimuth
Unknown
Elevation
Unknown
Doppler factor
Unknown
Orbital elements
Apogee altitude
547.72 km
Perigee altitude
456.453 km
Semi-major axis
6,880.224 km
Eccentricity
0.00663
Inclination
98.8205°
RAAN
284.2028°
Arg. of periapsis
166.9407°
True anomaly
193.18193°
Mean anomaly
193.3561°
Eccentric anomaly
193.26888°
Mean motion
3.80311 °/min
Orbital period
94.66 mins
BSTAR
0.0015143
Loading maneuver chart data...
Computing Atmospheric mass density...
Loading historical data...
Loading historical data...
Loading historical data...
Loading historical data...
Loading historical data...
Loading historical data...
Loading historical data...

Documentation

Showing up to 5 results
|